sat.trackr.live / text

‹ back to catalog

STARLINK-31067

NORAD 58608 · 2023-200V

PAYLOAD ACTIVE UNKNOWN

§ Identity

Operator
Country
US
Launch date
2023-12-19
Launch site
AFETR
Launch vehicle
Mass (kg)
RCS (m²)

Purposes: comms

External: N2YO · Heavens-Above · Gunter

§ Orbital elements

Epoch: 2026-05-25T03:35:29.689152Z

Period
94.27 min
Inclination
43.0016°
Eccentricity
0.0001227
Mean motion
15.27586638 rev/d
Perigee alt
482.2 km
Apogee alt
483.9 km
Semi-major
6,861.2 km
B*
-6.3545e-5
RAAN
97.1053°
Arg perigee
265.9617°
Mean anomaly
94.1094°
Rev number
13,530

§ Raw data

STARLINK-310671 58608U 23200V   26145.14964918 -.00002011  00000+0 -63545-4 0  99962 58608  43.0016  97.1053 0001227 265.9617  94.1094 15.27586638135306

JSON: /api/v1/satellites/58608 · /tle

For live sub-satellite position, see the globe view (requires WebGL).

§ Visibility from observer

Set your observer location to see the next 7 days of passes ≥ 10°. The values pass through the URL so the page stays shareable.

No JS? Fill the form by hand. The geolocation button needs JavaScript.